Probability
6 3 1 1 0 0 0 0 0 0 0 0 0 0 0 0 0 0 0 0 0 0 1 2 2 1 0 1 2 2 1 0 0 1 1 2 4 4 4 2 1 0 1 2 1 1 2 2 1
4 2 1 1 1 0 0 0 0 0 0 0 0 0 0 0 0 0 0 0 0 0 0 1 1 0 0 1 2 3 1 0 1 2 2 3 5 5 4 3 1 1 2 2 2 2 3 4 3
3 3 3 2 1 0 0 0 0 0 0 0 0 0 0 0 0 0 0 0 0 0 0 0 0 0 0 1 2 2 1 0 1 2 3 5 6 6 5 4 3 2 3 3 3 4 6 6 6
5 6 5 2 1 0 0 0 0 0 0 0 0 0 0 0 0 0 0 0 0 0 0 0 1 1 0 1 1 1 1 0 0 2 3 4 5 6 5 4 4 4 3 3 5 7 9 9 8
8 7 4 1 0 0 0 0 0 0 0 0 0 0 0 0 0 0 0 0 0 0 0 1 2 1 1 1 1 1 1 1 1 1 2 3 5 5 5 5 5 3 2 2 4 8 10 10 9
10 7 2 0 0 0 0 0 1 1 1 1 1 1 0 0 0 0 0 0 0 0 0 1 2 2 1 1 1 2 2 2 1 1 1 3 4 5 6 6 5 2 1 0 3 7 9 9 8
11 6 1 0 0 0 0 0 1 2 2 2 2 1 0 0 0 0 0 0 0 0 0 0 1 1 2 2 3 3 3 2 1 0 1 2 4 4 5 6 4 2 1 1 3 6 8 7 7
8 4 1 0 0 0 0 0 1 3 3 3 1 0 0 1 1 0 0 0 0 0 0 0 0 1 1 2 3 3 3 3 1 0 0 1 2 3 3 4 3 1 1 3 5 6 7 7 6
3 2 0 0 0 0 0 1 2 4 4 3 1 1 2 4 4 2 0 0 0 0 0 0 0 0 0 0 1 2 3 3 2 1 0 0 1 1 2 3 2 1 1 3 5 6 7 6 6
1 0 0 0 0 0 1 2 3 4 4 3 2 4 7 8 8 6 2 0 0 0 0 0 0 0 0 0 0 1 1 2 2 1 0 0 0 0 1 2 2 1 1 2 4 4 5 4 4
0 0 0 0 0 1 2 3 3 3 3 2 3 6 9 10 9 8 5 2 0 0 0 0 0 0 0 0 0 0 0 1 1 1 0 0 0 0 0 1 2 2 1 1 2 2 2 1 1
0 0 0 0 0 1 2 2 2 2 1 1 3 6 8 9 8 8 6 3 1 0 0 0 0 0 0 0 0 0 0 0 0 0 0 0 0 0 0 1 1 1 1 0 1 1 0 0 0
0 0 0 0 0 0 1 1 1 1 1 2 3 5 7 8 8 8 7 4 3 2 0 0 0 0 0 0 0 0 0 0 0 0 0 0 0 0 0 1 1 0 0 0 0 0 0 0 0
0 0 0 0 0 0 0 0 0 1 2 3 4 4 7 8 8 7 6 5 5 4 2 1 1 0 0 0 0 0 0 0 0 0 0 0 0 0 0 0 0 0 0 0 0 0 0 0 0
0 0 0 0 0 0 0 0 0 2 3 4 4 4 6 8 8 7 7 7 7 6 3 1 0 0 0 0 0 0 0 0 0 0 0 0 0 0 0 0 0 0 0 0 0 0 0 0 0
0 0 0 0 0 0 0 0 0 1 3 4 4 3 4 6 7 8 8 9 8 7 4 1 0 0 0 0 0 0 0 0 0 0 0 0 0 0 0 0 0 0 0 0 0 0 0 0 0
0 0 0 0 0 1 1 1 1 1 2 3 4 4 4 5 7 9 9 9 9 8 5 2 1 1 0 0 0 0 0 0 0 0 0 0 0 0 0 0 0 0 0 0 0 0 0 0 0
0 0 0 1 1 2 2 1 1 2 3 3 4 5 5 4 7 10 11 11 11 10 7 4 2 2 1 0 0 0 0 0 0 0 0 0 0 0 0 0 0 0 0 0 0 0 0 0 0
0 0 1 1 2 2 2 1 1 3 5 6 7 6 5 4 7 11 13 14 13 11 9 6 4 4 2 1 0 0 0 0 0 0 0 0 0 0 0 0 0 0 0 0 0 0 0 0 0
0 1 1 1 1 1 1 0 1 3 5 7 8 8 6 5 7 12 16 16 14 10 9 8 6 5 4 2 1 0 0 0 0 0 0 0 0 0 0 0 0 0 0 0 0 0 0 0 0
0 1 1 1 0 0 0 1 2 4 5 6 7 8 8 7 9 13 19 19 14 9 7 7 6 6 4 3 1 0 0 0 0 0 0 0 0 0 0 0 0 0 0 0 0 0 0 0 0
0 0 1 1 0 0 0 1 3 4 5 4 5 8 10 10 11 15 20 21 15 9 6 5 6 6 5 4 2 1 0 0 0 0 0 1 0 0 0 0 0 0 0 0 0 0 0 0 0
0 0 0 0 0 0 0 1 2 4 4 4 4 6 8 9 11 14 18 19 15 10 7 6 6 7 6 5 3 1 0 0 0 0 0 0 0 0 0 0 0 0 0 0 0 0 0 0 0
0 0 0 0 0 0 0 1 2 3 3 3 4 5 6 7 9 12 15 17 16 13 10 9 9 8 7 6 4 2 1 0 0 0 0 0 0 0 0 0 0 0 0 0 0 0 0 0 0
0 0 0 0 0 0 1 1 1 2 3 3 4 6 7 7 8 11 13 15 16 15 14 14 12 11 9 7 5 4 3 1 0 0 0 0 0 0 0 0 0 0 0 0 0 0 0 0 0
0 0 0 0 0 1 2 2 2 3 4 4 6 9 9 7 8 10 12 13 16 18 18 17 14 14 14 11 8 6 5 3 1 1 1 0 0 1 1 1 1 1 0 0 0 0 0 0 0
0 0 0 0 0 1 2 3 4 5 6 5 7 10 9 6 8 12 14 15 18 20 21 19 16 16 16 14 11 9 6 4 3 2 2 1 1 3 4 3 2 1 0 0 0 0 0 0 0
0 0 0 0 0 0 1 2 5 7 8 7 8 10 9 6 9 13 16 19 20 21 21 19 16 15 15 15 13 11 9 8 6 4 3 3 2 3 4 3 2 0 0 1 1 0 0 0 0
0 0 0 0 0 0 0 1 4 8 11 11 12 13 11 8 9 13 17 20 22 21 19 18 16 14 15 15 15 14 14 13 11 9 7 5 3 2 2 3 2 1 1 2 2 1 1 0 0
0 0 0 0 0 0 0 0 3 8 13 15 16 15 13 8 8 13 17 21 22 21 18 17 17 15 16 16 16 16 16 16 15 14 11 7 3 1 1 2 2 2 2 3 3 2 2 1 0
Wind_Speed
10 7 4 1 2 3 1 2 5 6 5 7 10 10 8 6 4 5 3 8 9 8 6 9 11 11 11 12 12 12 12 12 12 12 12 12 12 12 11 12 13 14 15 15 16 16 16 15 15
7 6 2 1 3 3 1 4 7 7 10 10 11 10 8 7 7 8 4 7 9 8 6 8 11 12 12 12 12 12 12 12 12 12 11 12 12 11 12 13 13 14 15 15 15 15 15 14 14
6 4 2 2 1 3 3 4 8 10 10 8 7 6 5 5 7 5 6 10 9 7 6 8 12 11 11 11 12 12 11 11 11 11 10 11 11 11 12 13 13 13 14 15 14 15 14 14 13
2 2 2 2 1 2 5 5 9 11 9 9 9 7 5 5 5 8 11 11 10 7 6 8 11 11 10 11 11 11 10 10 10 10 10 10 11 11 12 13 13 13 14 14 14 14 14 13 12
2 3 3 2 1 2 5 6 8 10 7 9 11 8 5 4 12 14 12 12 10 7 5 7 11 10 10 10 10 10 10 10 10 10 10 10 11 11 11 12 13 13 14 14 14 14 13 12 11
2 3 3 1 1 2 4 7 11 13 12 11 11 8 4 7 13 13 12 11 10 9 6 6 10 10 9 10 10 10 9 9 10 10 10 10 11 11 11 11 12 13 13 13 13 13 12 11 10
2 2 1 2 2 3 5 6 10 11 11 8 9 7 5 7 11 12 11 10 9 8 6 4 4 6 8 9 9 9 9 8 9 10 10 11 11 11 11 11 11 12 12 12 12 12 12 11 10
4 3 1 1 3 2 4 6 8 11 9 10 8 9 8 9 11 11 10 9 8 7 6 4 3 3 3 4 7 8 8 8 9 10 11 10 10 10 10 9 11 12 11 11 11 11 10 9 8
3 3 2 4 5 3 6 9 6 7 10 6 5 8 13 15 13 12 9 7 7 7 4 4 3 2 2 3 5 5 7 8 8 8 10 8 4 4 5 8 10 11 11 10 10 9 9 8 7
5 4 7 5 6 7 8 10 8 7 9 9 11 12 15 14 13 12 11 9 7 6 5 4 4 3 3 3 2 1 2 3 3 3 4 3 3 3 4 7 9 10 9 9 8 8 7 4 3
5 5 4 3 6 8 7 6 6 10 8 13 16 16 15 13 11 11 10 9 8 7 6 4 4 3 3 2 2 1 1 2 2 3 4 3 2 2 2 2 3 4 5 3 4 4 2 2 2
2 2 4 4 5 8 8 6 6 8 10 14 18 17 14 13 10 10 9 8 7 7 6 5 5 4 3 2 2 2 2 2 2 3 4 3 2 2 2 2 2 2 1 3 2 2 2 2 2
1 1 2 3 5 8 9 9 8 8 12 15 16 15 13 12 10 8 9 8 7 6 5 5 5 5 3 3 2 2 2 2 2 3 3 4 3 3 3 2 2 2 2 3 3 2 3 3 2
2 1 1 4 5 6 10 8 7 10 15 15 15 13 12 11 10 8 8 7 6 6 5 6 6 5 4 3 2 2 2 2 2 2 4 5 4 4 3 3 2 2 2 2 3 3 3 2 2
1 2 2 2 4 4 8 4 6 13 14 15 13 12 11 10 10 10 10 8 8 7 6 6 6 5 4 3 3 3 2 2 2 3 4 4 4 4 4 3 2 2 2 3 3 3 3 3 3
4 3 1 3 3 4 8 4 5 11 13 13 13 12 11 9 10 10 10 9 8 8 7 6 6 5 4 3 2 2 2 3 3 3 3 4 4 4 4 3 3 2 2 3 3 3 3 2 2
4 1 2 3 2 3 5 6 7 8 12 12 12 12 11 9 9 9 10 10 9 9 8 6 5 5 4 3 2 2 2 3 3 3 3 3 4 4 4 3 2 3 3 2 3 2 3 3 2
3 2 3 3 3 3 3 5 9 9 10 11 12 11 11 11 10 10 10 10 9 9 8 6 5 5 4 3 2 2 3 2 2 3 3 4 3 4 3 3 2 3 3 2 2 3 2 2 2
4 2 2 4 3 3 4 6 10 10 9 10 10 10 10 11 9 10 10 10 9 8 7 7 6 5 4 3 2 2 2 2 1 2 3 3 3 3 3 3 2 2 2 3 3 2 3 1 2
3 2 2 3 2 1 2 4 8 10 11 13 12 12 11 9 8 9 9 10 10 9 8 7 7 6 5 3 3 2 3 2 2 1 2 3 3 3 3 3 3 2 2 3 2 3 2 1 2
4 3 3 2 2 3 3 2 1 3 5 7 9 10 11 13 12 11 10 10 10 9 9 9 7 6 6 4 3 2 2 2 1 1 1 2 3 3 2 3 3 3 3 3 3 3 4 2 1
5 6 4 3 2 1 2 1 4 4 4 7 9 9 10 12 12 12 11 11 11 11 9 8 8 7 6 5 4 5 4 3 2 2 2 2 3 3 3 3 3 2 2 2 3 3 3 3 2
7 5 3 3 3 1 1 2 5 2 4 8 10 11 11 12 13 13 13 13 11 11 10 8 8 7 6 6 6 5 4 3 2 2 2 2 1 2 2 3 3 2 2 2 2 2 2 2 3
3 2 4 5 5 1 3 3 5 5 8 8 9 11 11 11 12 12 11 10 9 9 9 9 8 6 6 6 6 6 5 4 4 3 3 2 1 1 2 2 2 2 2 2 2 2 3 2 2
3 5 3 4 3 4 3 2 7 7 7 10 11 11 9 9 11 11 11 11 10 11 10 9 9 8 7 7 6 6 6 5 5 4 4 3 2 2 2 2 2 2 2 2 2 2 2 2 2
3 8 8 5 4 4 2 3 6 5 6 7 7 9 9 8 9 11 12 12 11 12 11 10 10 9 8 8 7 5 5 4 3 4 4 4 3 3 3 3 2 3 3 3 2 2 2 1 2
2 2 8 8 2 0 3 3 6 1 2 4 5 6 9 10 9 9 10 10 10 11 11 10 10 9 8 8 7 5 5 5 4 4 4 3 3 3 3 4 3 3 3 3 3 2 2 2 2
5 5 5 6 4 1 3 3 4 4 4 4 6 7 7 7 8 8 9 10 10 10 10 10 10 9 8 8 7 6 5 5 4 4 4 3 3 3 3 3 3 3 3 3 3 2 2 2 2
1 3 5 4 6 6 2 6 5 6 6 6 7 8 8 8 9 9 9 9 9 8 9 9 8 8 8 8 7 5 5 4 4 4 4 4 3 3 4 4 3 3 3 3 2 2 2 2 2
4 3 5 5 2 4 4 6 3 3 4 4 4 5 7 8 7 8 8 8 8 8 8 9 9 8 7 7 6 6 5 5 5 5 5 4 4 4 4 4 4 4 4 3 3 3 3 3 3
Wind_Direction
168 158 153 129 47 49 80 110 102 89 68 68 79 86 83 68 94 125 151 139 135 135 136 129 124 121 120 123 125 122 122 123 125 126 128 128 130 134 136 137 139 140 143 144 143 143 143 143 141
162 157 144 65 72 73 74 112 99 103 118 107 83 83 77 72 90 113 126 137 133 131 136 132 127 124 122 122 121 119 121 122 123 125 128 131 134 136 137 140 141 143 145 146 145 146 144 143 141
176 167 125 73 101 151 141 121 115 109 113 106 90 66 67 101 110 119 138 132 124 127 134 135 129 126 125 127 125 122 121 121 121 122 126 132 135 135 138 141 143 144 146 147 148 147 145 145 143
164 107 53 70 127 191 143 137 120 109 92 86 97 75 61 90 113 128 131 126 122 125 133 133 127 125 126 128 127 123 122 124 123 121 123 131 132 134 135 139 143 146 148 148 149 149 147 146 145
96 81 50 30 113 130 140 138 122 107 99 98 98 97 79 77 115 123 126 126 124 117 115 125 121 119 124 130 129 125 122 123 122 123 124 128 131 132 133 137 142 146 148 149 151 151 150 149 149
66 69 69 63 74 99 117 120 109 103 112 111 107 107 97 120 123 129 128 126 126 124 120 123 123 121 122 127 133 131 127 126 124 126 127 129 133 132 133 137 142 146 147 150 154 154 154 153 154
119 106 170 167 109 115 131 126 120 125 127 129 126 105 118 131 134 132 128 126 125 123 121 117 117 120 128 134 133 131 129 130 128 128 127 127 130 130 131 137 143 146 149 152 155 157 155 154 156
166 122 163 170 130 140 132 120 123 127 123 132 127 128 150 154 139 128 122 118 118 119 120 115 102 97 108 132 135 129 130 135 136 132 129 130 132 132 132 135 142 148 151 155 157 158 159 158 160
139 94 189 187 160 161 125 110 109 102 113 121 109 128 144 142 134 124 118 114 120 122 126 125 117 100 95 115 135 133 129 136 138 136 134 129 118 119 127 135 145 151 155 158 159 162 164 162 161
142 155 209 196 166 155 143 128 129 108 108 105 106 116 131 136 135 132 133 136 139 145 148 139 135 125 113 116 106 115 120 124 121 120 123 112 110 117 129 139 148 152 156 159 162 164 163 155 142
164 181 197 180 160 144 134 128 119 119 130 140 139 140 140 139 137 139 143 148 154 157 155 152 148 136 126 104 111 96 98 109 117 129 129 119 110 119 117 120 136 144 156 153 159 161 151 137 131
160 217 177 167 153 138 136 130 114 132 155 151 144 144 141 138 140 145 145 150 155 156 155 151 148 140 132 114 117 120 124 133 141 151 145 130 126 122 118 114 119 125 133 139 140 136 138 127 132
144 256 139 131 130 132 124 127 123 134 140 140 137 138 141 142 145 145 145 147 149 150 151 148 140 140 134 118 124 124 135 150 155 154 152 144 139 137 131 128 123 127 120 130 136 138 134 133 137
225 206 98 118 106 112 121 125 111 141 140 140 140 143 147 147 147 142 144 145 147 148 149 149 141 139 130 123 125 137 154 155 148 147 151 147 144 145 143 137 140 143 136 134 140 146 138 138 129
11 42 22 110 114 121 105 86 135 150 145 145 146 147 148 149 149 151 157 156 152 151 146 148 144 139 134 132 136 135 145 140 143 147 143 140 141 146 148 143 144 149 139 126 119 120 121 120 114
17 43 1 285 132 145 116 162 184 157 151 152 153 154 154 155 157 157 155 151 147 145 143 148 146 142 141 138 127 120 124 125 134 137 139 139 140 140 138 139 144 143 129 123 121 116 110 107 105
21 14 274 290 220 144 131 171 184 173 158 158 159 159 159 157 159 161 158 152 150 150 149 149 141 147 152 143 127 112 110 122 133 131 134 135 133 134 131 136 142 136 122 117 131 119 121 121 116
242 265 280 240 218 156 155 185 170 182 167 164 163 162 161 164 170 165 160 154 151 150 149 150 144 149 149 134 119 101 94 104 118 129 139 136 135 134 132 132 137 131 120 115 121 126 123 128 136
205 221 244 258 219 167 185 184 180 181 173 170 168 166 168 172 169 161 159 156 151 149 147 150 148 155 149 140 137 128 128 134 134 140 144 145 141 132 130 133 134 133 135 148 143 128 127 131 126
226 245 260 294 268 133 187 196 181 182 180 177 171 170 169 164 161 164 163 161 160 160 157 154 157 160 162 159 157 152 147 152 160 148 137 149 146 146 146 141 151 152 144 146 148 136 134 156 141
255 209 217 229 1 58 90 5 173 199 179 179 175 172 169 169 170 170 168 168 166 166 167 165 164 163 164 155 134 121 94 87 92 109 144 158 149 151 144 149 153 156 155 165 175 167 158 161 180
250 233 202 182 110 255 129 193 262 213 190 189 183 181 179 177 174 173 172 173 176 175 171 165 164 165 167 160 152 148 148 156 182 176 167 169 161 155 149 147 154 156 160 170 191 179 167 153 174
224 225 166 154 133 79 41 138 269 182 205 213 196 186 183 182 178 177 177 179 179 175 172 168 163 167 168 166 164 160 162 172 160 150 149 162 176 171 164 161 164 169 174 177 178 165 165 159 169
195 61 54 56 69 21 239 167 254 216 208 208 204 196 186 178 178 177 174 172 176 174 171 169 166 171 172 168 166 166 168 166 153 154 164 175 179 187 188 170 164 170 172 176 181 180 174 177 172
102 92 42 9 15 253 240 172 238 230 204 197 196 189 180 174 174 171 172 173 176 174 173 172 171 175 177 173 173 176 178 175 174 175 178 176 178 192 207 187 177 174 179 176 175 176 188 189 183
200 141 154 183 212 268 314 228 255 239 205 187 178 169 161 169 176 176 178 173 172 172 171 172 176 179 179 178 180 179 177 177 182 181 179 184 191 199 193 181 176 179 183 184 176 179 201 201 205
174 176 165 141 160 119 294 301 311 265 176 175 160 162 172 175 173 177 177 171 169 169 173 175 178 178 181 182 178 179 179 179 180 177 177 184 192 195 189 187 182 186 188 183 174 189 198 199 214
165 157 95 113 139 217 299 285 242 231 201 180 173 180 182 174 172 179 182 175 173 170 167 170 176 180 180 181 184 186 187 184 177 169 173 179 187 190 180 185 185 188 194 188 183 190 198 198 226
29 81 104 115 145 150 205 266 233 204 195 178 179 176 171 176 176 181 184 179 173 164 166 169 176 177 178 181 183 183 182 182 175 176 187 189 182 175 175 183 185 193 197 195 190 201 193 202 227
146 154 138 143 199 154 160 258 275 193 167 146 155 159 161 167 175 178 175 169 165 170 175 176 178 177 178 176 174 181 181 180 184 190 192 186 183 185 185 185 186 196 200 197 197 209 208 205 220